Port Hope, MI

9:59 PM EDT on September 27, 2016 (GMT -0400)
Port Hope

Weather History for KP58 - July, 2013

Change the Weather History Date:

Saturday, July 27, 2013

  Actual Average Record
Temperature  
Mean Temperature 68 °F -  
Max Temperature 73 °F 76 °F 93 °F (2000)
Min Temperature 62 °F 61 °F 54 °F (2005)
Cooling Degree Days 2    
Growing Degree Days 18 (Base 50)    
Moisture  
Dew Point 62 °F    
Average Humidity 85    
Maximum Humidity 93    
Minimum Humidity 71    
Precipitation  
Precipitation 0.35 in - - ()
Sea Level Pressure  
Sea Level Pressure 29.78 in    
Wind  
Wind Speed 2 mph (SW)    
Max Wind Speed 9 mph    
Max Gust Speed -    
Averages and records for this station are not official NWS values.
T = Trace of Precipitation, MM = Missing Value Source: NWS Daily Summary

Daily Weather History Graph

Daily Weather History Graph

Search for Another Location

Airport or City:

Trip Planner

Search our weather history database for the weather conditions in past years. The results will help you decide how hot, cold, wet, or windy it might be!

Date:

Astronomy

Jul. 27, 2013 Rise Set
Actual Time 6:14 AM EDT 9:00 PM EDT
Civil Twilight 5:40 AM EDT 9:33 PM EDT
Nautical Twilight 4:58 AM EDT 10:16 PM EDT
Astronomical Twilight 4:08 AM EDT 11:05 PM EDT
Moon 11:31 PM EDT (7/27) 12:07 PM EDT (7/27)
Length of Visible Light 15h 53m
Length of Day
14h 46m
Waning Gibbous, 71% of the Moon is Illuminated
Jul 27
Waning Gibbous
Jul 29
Last Quarter
Aug 6
New
Aug 14
First Quarter
Aug 20
Full

Hourly Weather History & Observations

Time (EDT) Temp. Dew Point Humidity Pressure Visibility Wind Dir Wind Speed Gust Speed Precip Events Conditions
12:51 AM 64.9 °F 63.0 °F 93% 29.86 in - Calm Calm - N/A   Unknown
1:51 AM 66.0 °F 63.0 °F 90% 29.85 in - Calm Calm - N/A   Unknown
2:51 AM 64.9 °F 61.0 °F 87% 29.84 in - Calm Calm - N/A   Unknown
3:51 AM 64.9 °F 60.1 °F 84% 29.83 in - Calm Calm - N/A   Unknown
4:51 AM 64.9 °F 61.0 °F 87% 29.83 in - Calm Calm - N/A   Unknown
5:51 AM 64.9 °F 61.0 °F 87% 29.82 in - Calm Calm - N/A   Unknown
6:51 AM 66.0 °F 61.0 °F 84% 29.83 in - Calm Calm - N/A   Unknown
7:51 AM 66.0 °F 62.1 °F 87% 29.83 in - Calm Calm - N/A   Unknown
8:51 AM 66.9 °F 62.1 °F 84% 29.82 in - Variable 3.5 mph - N/A   Unknown
9:51 AM 68.0 °F 62.1 °F 81% 29.82 in - Variable 3.5 mph - N/A   Unknown
10:51 AM 71.1 °F 62.1 °F 73% 29.79 in - Variable 4.6 mph - N/A   Unknown
11:51 AM 72.0 °F 62.1 °F 71% 29.78 in - Calm Calm - N/A   Unknown
12:51 PM 70.0 °F 64.0 °F 81% 29.77 in - Variable 4.6 mph - N/A   Unknown
1:51 PM 68.0 °F 63.0 °F 84% 29.76 in - Calm Calm - 0.02 in   Unknown
2:51 PM 68.0 °F 63.0 °F 84% 29.76 in - ESE 5.8 mph - N/A   Unknown
3:51 PM 69.1 °F 63.0 °F 81% 29.73 in - East 3.5 mph - 0.01 in   Unknown
4:51 PM 69.1 °F 63.0 °F 81% 29.71 in - SE 6.9 mph - N/A   Unknown
5:51 PM 66.0 °F 61.0 °F 84% 29.71 in - Calm Calm - N/A   Unknown
6:51 PM 63.0 °F 61.0 °F 93% 29.72 in - West 3.5 mph - 0.26 in   Unknown
7:51 PM 64.0 °F 62.1 °F 93% 29.70 in - Variable 3.5 mph - 0.01 in   Unknown
8:51 PM 64.0 °F 61.0 °F 90% 29.72 in - SW 3.5 mph - N/A   Unknown
9:51 PM 64.0 °F 61.0 °F 90% 29.72 in - WNW 3.5 mph - 0.02 in   Unknown
10:51 PM 64.0 °F 61.0 °F 90% 29.73 in - SW 5.8 mph - 0.02 in   Unknown
11:51 PM 62.1 °F 59.0 °F 90% 29.74 in - WSW 9.2 mph - 0.01 in   Unknown